{"data":{"norad_id":65325,"intl_designator":"2025-189C","name":"STARLINK-34911","alt_names":[],"object_type":"PAYLOAD","status":"ACTIVE","operator":null,"country":"US","launch_date":"2025-08-27","launch_site_code":"AFETR","launch_vehicle":null,"mission":null,"orbit_class":"UNKNOWN","rcs_meters":null,"size_class":null,"mass_kg":null,"dimensions":null,"purposes":["comms"],"wikipedia_slug":null,"has_3d_model":false,"image_url":null,"decayed_at":null,"tle_current":{"epoch":"2026-05-24T21:54:43.466112Z","epoch_age_seconds":89484,"freshness":"FRESH","line1":"1 65325U 25189C   26144.91300308  .00019149  00000+0  65741-3 0  9996","line2":"2 65325  53.1589 212.9284 0001355  81.9654 278.1500 15.30179135 42777","mean_motion":15.30179135,"eccentricity":0.0001355,"inclination_deg":53.1589,"raan_deg":212.9284,"arg_perigee_deg":81.9654,"mean_anomaly_deg":278.15,"bstar":0.00065741,"rev_number":4277,"period_min":94.106628894793,"perigee_km":474.34873160926,"apogee_km":476.20600690332,"semimajor_km":6853.4143692563,"source":"CELESTRAK","updated_at":"2026-05-25T13:38:20.758309Z"}}}